Regional Weather Roundup
Issued by NWS

Home | Current Version | Previous Version | Text Only | Print | Product List | Glossary Off
Versions: 1 2 3 4 5 6 7 8 9 10 11 12 13 14 15 16 17 18 19 20 21 22 23 24 25 26 27 28 29 30 31 32 33 34 35 36 37 38 39 40 41 42 43 44 45 46 47 48 49 50

000
ASUS43 KOAX 250610
RWRNE

WEATHER ROUNDUP FOR NEBRASKA
NATIONAL WEATHER SERVICE OMAHA NE
1200 AM CST SAT NOV 25 2017

NOTES: SATELLITE DATA IS BEING USED TO AUGMENT CLOUD COVER ABOVE
       12000 FEET.
       "FAIR" INDICATES FEW OR NO CLOUDS BELOW 12,000 FEET WITH NO
       SIGNIFICANT WEATHER AND/OR OBSTRUCTIONS TO VISIBILITY.


NEZ001>004-019>022-054>056-250700-
NEBRASKA PANHANDLE

CITY           SKY/WX    TMP DP  RH WIND       PRES   REMARKS
SCOTTSBLUFF    CLEAR     33  21  61 W3        30.07S
6HR MIN TEMP:  29; 6HR MAX TEMP:  45;

ALLIANCE       PTCLDY    27  24  89 SW3       30.05S
6HR MIN TEMP:  25; 6HR MAX TEMP:  42;

CHADRON        CLEAR     28  25  88 W5        30.05R WCI  23
6HR MIN TEMP:  26; 6HR MAX TEMP:  44;

GORDON         FAIR      23  19  86 CALM      30.04R
6HR MIN TEMP:  22; 6HR MAX TEMP:  39;

KIMBALL        CLEAR     28  24  86 SW5       30.09R WCI  22
SIDNEY         CLEAR     28  23  81 W6        30.09R WCI  22
6HR MIN TEMP:  26; 6HR MAX TEMP:  46;

$$

NEZ057>060-069>072-079>082-250700-
SOUTHWEST NEBRASKA

CITY           SKY/WX    TMP DP  RH WIND       PRES   REMARKS
NORTH PLATTE   PTCLDY    30  25  81 CALM      30.08R
6HR MIN TEMP:  29; 6HR MAX TEMP:  53;

IMPERIAL       CLOUDY    41  29  62 CALM      30.09R
6HR MIN TEMP:  31; 6HR MAX TEMP:  56;

LEXINGTON      CLEAR     32  27  81 W6        30.08R WCI  26
MCCOOK         CLOUDY    40  31  70 N12       30.08R WCI  33
6HR MIN TEMP:  36; 6HR MAX TEMP:  53;

OGALLALA       CLOUDY    33  28  81 W5        30.09R WCI  28
$$

NEZ005>010-023>029-035>040-094-250700-
NORTH CENTRAL NEBRASKA

CITY           SKY/WX    TMP DP  RH WIND       PRES   REMARKS
VALENTINE      CLEAR     32  28  85 W7        30.03R WCI  26
6HR MIN TEMP:  32; 6HR MAX TEMP:  47;

AINSWORTH      CLEAR     32  28  88 W9        30.03R WCI  24
BROKEN BOW     CLEAR     31  25  78 CALM      30.06R
6HR MIN TEMP:  31; 6HR MAX TEMP:  52;

O`NEILL        CLEAR     35  31  84 W5        30.01S WCI  31
ORD            CLEAR     30  26  85 NW5       30.04R WCI  25
6HR MIN TEMP:  30; 6HR MAX TEMP:  52;

THEDFORD       CLEAR     33  27  80 CALM      30.07S
$$

NEZ041-046>049-061>064-073>077-083>087-250700-
SOUTH CENTRAL NEBRASKA

CITY           SKY/WX    TMP DP  RH WIND       PRES   REMARKS
GRAND ISLAND   CLEAR     36  30  79 W7        30.06R WCI  30
6HR MIN TEMP:  36; 6HR MAX TEMP:  56;

AURORA         CLEAR     36  29  77 W7        30.05R WCI  31
HASTINGS       CLEAR     34  26  72 NW7       30.06R WCI  28
6HR MIN TEMP:  34; 6HR MAX TEMP:  56;

HEBRON         CLEAR     40  32  73 NW5       30.05R
HOLDREGE       PTCLDY    34  28  79 NW5       30.07R WCI  30
KEARNEY        CLEAR     37  27  67 NW6       30.07R WCI  32
YORK           CLEAR     37  32  81 W9        30.04R WCI  31
$$

NEZ011>018-030>034-042>045-250700-
NORTHEAST NEBRASKA

CITY           SKY/WX    TMP DP  RH WIND       PRES   REMARKS
NORFOLK        CLEAR     38  33  82 W9        30.00R WCI  31
6HR MIN TEMP:  36; 6HR MAX TEMP:  51;

ALBION         CLEAR     35  32  87 N6        30.03R WCI  30
BLAIR          CLEAR     42  33  71 W6        29.98R
COLUMBUS       CLEAR     31  29  92 W6        30.03R WCI  25
FREMONT        CLEAR     35  31  84 NW6       30.00R WCI  30
TEKAMAH        CLEAR     37  29  72 W6        29.98R WCI  32
6HR MIN TEMP:  35; 6HR MAX TEMP:  56;

WAYNE          CLOUDY    38  33  82 NW6       30.00R WCI  33
$$

NEZ050>053-065>068-078-088>093-250700-
SOUTHEAST NEBRASKA

CITY           SKY/WX    TMP DP  RH WIND       PRES   REMARKS
LINCOLN        CLEAR     44  34  67 NW6       30.03R
6HR MIN TEMP:  40; 6HR MAX TEMP:  61;

OMAHA EPPLEY   CLEAR     37  29  72 CALM      29.99R
6HR MIN TEMP:  37; 6HR MAX TEMP:  59;

BEATRICE       CLEAR     37  32  82 W5        30.02R WCI  33
FALLS CITY     CLEAR     43  34  70 NW7       29.98R
6HR MIN TEMP:  43; 6HR MAX TEMP:  60;

NEBRASKA CITY  CLEAR     43  35  72 W7        29.99R
PLATTSMOUTH    CLEAR     43  34  71 W9        29.99R
$$

NEZ044-045-051>053-067-250700-
OMAHA AREA

CITY           SKY/WX    TMP DP  RH WIND       PRES   REMARKS
OMAHA EPPLEY   CLEAR     37  29  72 CALM      29.99R
6HR MIN TEMP:  37; 6HR MAX TEMP:  59;

BLAIR          CLEAR     42  33  71 W6        29.98R
FREMONT        CLEAR     35  31  84 NW6       30.00R WCI  30
MILLARD        CLEAR     42  34  72 CALM      29.99R
OFFUTT AFB     CLEAR     37  31  79 NW7       29.98R WCI  32
PLATTSMOUTH    CLEAR     43  34  71 W9        29.99R
WAHOO          FAIR      42  33  73 NW5       30.00R
$$




USA.gov is the U.S. government's official web portal to all federal, state and local government web resources and services.